Location: Newark
(20.1200°S, 168.9600°E)
Time: 10:11:58
(UTC+00:00)

LightSail 2 - Pass Details

Date: 30 November 2019
Orbit: 696 x 730 km, 24.0° (Epoch: 15 December)

Event Time Altitude Azimuth Distance (km) Brightness Sun altitude
Exits shadow 16:02:54 16° 25° (NNE) 1,784 7.1 -23.8°
Maximum altitude 16:03:01 16° 26° (NNE) 1,784 7.1 -23.8°
Drops below altitude 10° 16:06:12 10° 65° (ENE) 2,189 8.0 -23.2°
Sets 16:09:30 0° 85° (E) 3,120 9.2 -22.6°
